Location: Proctor
(47.8934°N, 114.3048°W)
Time: 10:24:32
(UTC+00:00)

Transit 4A - Pass Details

Date: 25 June 2024
Orbit: 870 x 973 km, 66.8° (Epoch: 13 July)

Event Time Altitude Azimuth Distance (km) Brightness Sun altitude
Rises 08:55:54 0° 294° (WNW) 3,462 11.0 -16.7°
Reaches altitude 10° 09:00:01 10° 323° (NW) 2,530 10.6 -16.5°
Maximum altitude 09:02:34 13° 349° (NNW) 2,339 10.9 -16.4°
Drops below altitude 10° 09:05:07 10° 15° (NNE) 2,546 11.5 -16.2°
Sets 09:09:18 0° 43° (NE) 3,504 12.2 -16.0°
